Terminal Aerodrome Forecast
Issued by NWS

Home | Current Version | Previous Version | Text Only | Print | Product List | Glossary On
Versions: 1 2 3 4 5 6 7 8 9 10 11 12 13 14 15 16
000
FTUS45 KSLC 201607 AAA
TAFBCE
TAF AMD
KBCE 201607Z 2016/2112 28013G18KT P6SM FEW040 SCT080
     FM201900 30010KT P6SM VCSH SCT060 BKN120
     FM210300 27006KT P6SM SCT060 SCT120=

USA.gov is the U.S. government's official web portal to all federal, state and local government web resources and services.